[TLELIST] Archives

 

[list_settings.list_name] Current TLEs

November 3rd 2021 PST

HST 1 20580U 90037B 21306.94166685 .00001961 00000-0 10728-3 0 9999 2 20580 28.4694 228.6468 0002858 114.6985 329.8674 15.09818923531940 ISS (ZARYA) 1 25544U 98067A 21307.01910440 .00007519 00000-0 14497-3 0 9992 2 25544 51.6453 16.2477 0003674 166.4206 253.6219 15.48903836310119 CXO 1 25867U 99040B 21308.26898733 .00000927 00000-0 00000-0 0 9998 2 25867 51.6084 248.9871 8528745 227.8375 0.1805 0.37811346 10969 ____________________________________________________________________ These 2-Line ...Continue Reading

[list_settings.list_name] Current TLEs

November 2nd 2021 PST

HST 1 20580U 90037B 21305.87738101 .00001449 00000-0 76450-4 0 9994 2 20580 28.4696 235.6909 0002871 103.7497 304.5948 15.09813309531781 ISS (ZARYA) 1 25544U 98067A 21306.38175858 .00007110 00000-0 13759-3 0 9994 2 25544 51.6456 19.3993 0003617 165.3078 298.5239 15.48892190310010 CXO 1 25867U 99040B 21308.26861553 .00000927 00000-0 00000-0 0 9998 2 25867 51.6084 248.9871 8528736 227.8376 0.1304 0.37811700 10968 ____________________________________________________________________ These 2-Line ...Continue Reading

[list_settings.list_name] Current TLEs

November 1st 2021 PST

HST 1 20580U 90037B 21304.57641190 .00001501 00000-0 79560-4 0 9995 2 20580 28.4698 244.3011 0002865 90.7351 72.4034 15.09810429531586 ISS (ZARYA) 1 25544U 98067A 21305.49174769 .00006352 00000-0 12389-3 0 9990 2 25544 51.6454 23.8015 0003616 161.6486 16.2104 15.48875649309872 CXO 1 25867U 99040B 21308.26861553 .00000927 00000-0 00000+0 0 9997 2 25867 51.6084 248.9871 8528736 227.8376 0.1304 0.37811700 22107 ____________________________________________________________________ These 2-Line ...Continue Reading

[list_settings.list_name] Current TLEs

October 31st 2021 PST

HST 1 20580U 90037B 21304.15356468 .00001622 00000-0 86867-4 0 9992 2 20580 28.4699 247.0997 0002859 86.6945 293.5808 15.09810139531781 ISS (ZARYA) 1 25544U 98067A 21304.18483689 .00005661 00000-0 11138-3 0 9992 2 25544 51.6454 30.2628 0003777 157.4502 288.3646 15.48855051309670 CXO 1 25867U 99040B 21302.97983705 .00001063 00000-0 00000+0 0 9995 2 25867 51.8141 249.3499 8525668 227.6912 0.2441 0.37808647 22085 ____________________________________________________________________ These 2-Line ...Continue Reading

[list_settings.list_name] Current TLEs

October 30th 2021 PST

HST 1 20580U 90037B 21302.59330744 .00001578 00000-0 84258-4 0 9999 2 20580 28.4700 257.4259 0002840 70.9038 92.0822 15.09806334531554 ISS (ZARYA) 1 25544U 98067A 21303.35093816 .00005689 00000-0 11193-3 0 9990 2 25544 51.6443 34.3860 0003891 156.4010 316.6464 15.48845020309545 CXO 1 25867U 99040B 21302.97983705 .00001063 00000-0 00000+0 0 9995 2 25867 51.8141 249.3499 8525668 227.6912 0.2441 0.37808647 22085 ____________________________________________________________________ These 2-Line ...Continue Reading

[list_settings.list_name] Current TLEs

October 29th 2021 PST

HST 1 20580U 90037B 21301.60180757 .00001261 00000-0 65096-4 0 9995 2 20580 28.4700 263.9879 0002820 60.8255 102.3837 15.09802739531131 ISS (ZARYA) 1 25544U 98067A 21302.20417510 .00005398 00000-0 10669-3 0 9998 2 25544 51.6447 40.0551 0003988 152.3277 42.3612 15.48830090309366 CXO 1 25867U 99040B 21302.97983705 .00001063 00000-0 00000+0 0 9995 2 25867 51.8141 249.3499 8525668 227.6912 0.2441 0.37808647 22085 ____________________________________________________________________ These 2-Line ...Continue Reading

[list_settings.list_name] Current TLEs

October 28th 2021 PST

HST 1 20580U 90037B 21301.26906334 .00001279 00000-0 66193-4 0 9992 2 20580 28.4700 266.1901 0002811 57.5891 93.4740 15.09802241531356 ISS (ZARYA) 1 25544U 98067A 21301.23978222 .00003923 00000-0 79846-4 0 9997 2 25544 51.6450 44.8258 0003990 147.3293 66.5615 15.48812559309216 CXO 1 25867U 99040B 21302.97983705 .00001063 00000-0 00000+0 0 9995 2 25867 51.8141 249.3499 8525668 227.6912 0.2441 0.37808647 22085 ____________________________________________________________________ These 2-Line ...Continue Reading

[list_settings.list_name] Current TLEs

October 27th 2021 PST

HST 1 20580U 90037B 21299.26218955 .00001033 00000-0 51390-4 0 9994 2 20580 28.4702 279.4720 0002753 37.0218 344.4969 15.09797666530787 ISS (ZARYA) 1 25544U 98067A 21300.37589350 .00002672 00000-0 57025-4 0 9996 2 25544 51.6442 49.0977 0003933 144.9661 288.9365 15.48799587309083 CXO 1 25867U 99040B 21300.33547983 .00000976 00000-0 00000-0 0 9990 2 25867 51.8792 249.4780 8521708 227.6380 0.3325 0.37804997 10938 ____________________________________________________________________ These 2-Line ...Continue Reading

[list_settings.list_name] Current TLEs

October 26th 2021 PST

HST 1 20580U 90037B 21299.07374097 .00000962 00000-0 47068-4 0 9990 2 20580 28.4702 280.7191 0002744 35.0446 40.1751 15.09797036531012 ISS (ZARYA) 1 25544U 98067A 21299.23679509 .00002448 00000-0 52948-4 0 9994 2 25544 51.6442 54.7307 0003882 142.4835 55.9903 15.48790990308901 CXO 1 25867U 99040B 21300.33547983 .00000976 00000-0 00000-0 0 9990 2 25867 51.8792 249.4780 8521708 227.6380 0.3325 0.37804997 10938 ____________________________________________________________________ These 2-Line ...Continue Reading

[list_settings.list_name] Current TLEs

October 25th 2021 PST

HST 1 20580U 90037B 21297.70170484 .00000851 00000-0 40358-4 0 9994 2 20580 28.4704 289.7995 0002709 20.5499 142.5041 15.09794529530543 ISS (ZARYA) 1 25544U 98067A 21297.87200865 .00004068 00000-0 82553-4 0 9992 2 25544 51.6439 61.4842 0004404 140.4960 3.4198 15.48788699308697 CXO 1 25867U 99040B 21300.33547983 .00000976 00000-0 00000-0 0 9990 2 25867 51.8792 249.4780 8521708 227.6380 0.3325 0.37804997 10938 ____________________________________________________________________ These 2-Line ...Continue Reading
  • This mailing list is a public mailing list - anyone may join or leave, at any time.
  • This mailing list is announce-only.

International Space Station (ISS) / Hubble Space Telescope (HST) / Chandra X-Ray Observatory Orbital Data via EMAIL

Privacy Policy:

Private list